Flag for New Zealand Weather past 2 weeks in Palmerston North, New Zealand

Now
52 °F

Cool.


Feels Like: 50 °F
Forecast: 42 / 52 °F
Wind: 6 mph from Northeast

Location: Wellington Airport

Current Time: May 24, 2015 at 6:10:03 PM

Latest Report: May 24, 2015 at 5:30 PM


Visibility: N/A

Pressure: 29.36 "Hg

Humidity: 62%

Dew point: 39 °F

Location of Palmerston NorthLocation

Historic Weather in Palmerston North — Graph

°F

Palmerston North temperature yesterday

Maximum temperature yesterday: 57 °F (at 12:30 PM)
Minimum temperature yesterday: 48 °F (at 12:00 AM)
Average temperature yesterday: 53 °F

Past Weeks' High & Low Weather Summary

 TemperatureHumidityPressure
High66 °F (May 10, 1:00 PM)100% (May 15, 12:30 AM)30.21 "Hg (May 15, 12:30 AM)
Low46 °F (May 17, 8:00 PM)48% (May 12, 7:00 PM)29.24 "Hg (May 12, 1:00 PM)
Average56 °F76%29.75 "Hg
* Reported May 9 5:00 PM — May 24 5:00 PM, Palmerston North, Weather by CustomWeather, © 2015

Note: Actual official high and low records may vary slightly from our data, if they occured in-between our weather recording intervals... More about our weather records

Advertising

Palmerston North weather history for previous 24 hours

 ConditionsComfort  
Time TempWeatherWind HumidityBarometerVisibility
5:00 PM
Sun, May 24
52 °FCool.7 mph62%29.36 "HgN/A
4:30 PM55 °FRefreshingly cool.8 mph51%29.36 "HgN/A
4:00 PM55 °FRefreshingly cool.10 mph51%29.36 "HgN/A
3:30 PM57 °FRefreshingly cool.7 mph51%29.36 "HgN/A
3:00 PM57 °FRefreshingly cool.7 mph48%29.36 "HgN/A
2:30 PM55 °FRefreshingly cool.10 mph55%29.36 "HgN/A
2:00 PM55 °FRefreshingly cool.8 mph55%29.39 "HgN/A
1:30 PM55 °FRefreshingly cool.9 mph55%29.39 "HgN/A
1:00 PM55 °FPassing clouds.10 mph59%29.39 "HgN/A
12:30 PM54 °FScattered clouds.2 mph72%29.42 "HgN/A
12:00 PM52 °FPartly sunny.5 mph72%29.42 "HgN/A
11:30 AM52 °FPartly sunny.6 mph77%29.45 "HgN/A
11:00 AM52 °FScattered clouds.9 mph77%29.45 "HgN/A
10:30 AM52 °FPartly sunny.9 mph77%29.45 "HgN/A
10:00 AM52 °FPartly sunny.12 mph77%29.45 "HgN/A
9:30 AM52 °FBroken clouds.13 mph82%29.45 "HgN/A
9:00 AM52 °FScattered clouds.15 mph82%29.45 "HgN/A
8:30 AM50 °FPassing clouds.15 mph82%29.45 "HgN/A
8:00 AM52 °FBroken clouds.15 mph77%29.45 "HgN/A
7:30 AM52 °FBroken clouds.20 mph82%29.45 "HgN/A
7:00 AM52 °FBroken clouds.17 mph88%29.45 "HgN/A
6:30 AM54 °FPartly sunny.18 mph77%29.45 "HgN/A
6:00 AM54 °FPassing clouds.16 mph72%29.45 "HgN/A
5:30 AM54 °FPassing clouds.17 mph72%29.45 "HgN/A
5:00 AM54 °FSprinkles. Partly cloudy.16 mph77%29.42 "HgN/A
4:30 AM54 °FSprinkles. Partly cloudy.12 mph67%29.45 "HgN/A
4:00 AM54 °FPassing clouds.15 mph67%29.45 "HgN/A
3:30 AM54 °FPassing clouds.17 mph67%29.45 "HgN/A
3:00 AM54 °FPassing clouds.17 mph67%29.45 "HgN/A
2:30 AM54 °FPartly cloudy.18 mph67%29.45 "HgN/A
2:00 AM54 °FPassing clouds.18 mph67%29.45 "HgN/A
1:30 AM54 °FPassing clouds.21 mph72%29.45 "HgN/A
1:00 AM54 °FPassing clouds.20 mph72%29.45 "HgN/A
12:30 AM54 °FPassing clouds.20 mph72%29.45 "HgN/A
12:00 AM54 °FPartly cloudy.20 mph72%29.47 "HgN/A
11:30 PM
Sat, May 23
54 °FPartly cloudy.21 mph72%29.47 "HgN/A
11:00 PM54 °FPassing clouds.20 mph72%29.47 "HgN/A
10:30 PM54 °FPartly cloudy.21 mph72%29.47 "HgN/A
10:00 PM54 °FPartly cloudy.21 mph72%29.47 "HgN/A
9:30 PM54 °FPassing clouds.20 mph72%29.50 "HgN/A
9:00 PM54 °FPassing clouds.20 mph72%29.50 "HgN/A
8:30 PM54 °FPassing clouds.21 mph72%29.50 "HgN/A
8:00 PM54 °FPartly cloudy.20 mph72%29.53 "HgN/A
7:30 PM54 °FPassing clouds.18 mph72%29.53 "HgN/A
7:00 PM54 °FPassing clouds.17 mph72%29.50 "HgN/A
6:30 PM54 °FCool.16 mph72%29.53 "HgN/A
6:00 PM54 °FCool.17 mph67%29.53 "HgN/A
Weather by CustomWeather, © 2015

See weather overviewHow to use our weather pages